Wind_Speed
3 0 1 3 3 5 3 5 3 8 5 4 3 3 9 6 2 2 14 30 25 30 32 33 32 30 28 27 27 24 20 17 14 12 13 14 15 15 17 18 20 21 22 22 21 20 21 20 18
1 4 3 1 4 1 5 5 4 4 1 12 7 5 8 3 2 4 27 25 31 31 32 33 30 29 29 28 26 20 18 15 12 13 15 16 17 19 20 20 20 21 22 23 22 20 20 18 18
2 3 3 3 3 3 4 4 3 4 2 2 2 9 3 4 1 19 18 29 33 31 32 31 30 29 28 27 24 21 17 13 12 13 15 17 18 20 21 20 21 22 23 24 23 20 19 16 16
2 3 3 3 3 5 4 8 5 3 4 6 6 5 4 3 10 13 17 31 31 31 31 31 29 30 29 27 24 20 16 11 12 14 16 18 19 20 21 20 21 22 23 24 24 20 18 15 16
3 3 3 1 4 2 3 6 1 2 2 6 1 2 3 2 8 20 26 29 29 29 29 30 28 26 27 24 22 19 11 11 13 14 16 18 19 20 21 20 19 20 21 22 21 20 17 13 14
1 2 3 2 4 3 3 2 2 1 4 5 8 6 1 6 11 21 28 28 26 27 30 30 30 25 23 21 19 9 10 12 14 15 17 18 19 20 20 19 19 19 19 18 17 15 13 11 10
5 4 4 2 4 4 4 4 2 1 4 3 12 5 5 9 16 23 25 24 25 28 31 28 30 25 19 18 14 12 12 14 15 16 17 18 19 19 19 17 17 16 15 14 13 12 10 7 6
4 4 1 4 4 5 3 5 3 1 2 5 4 4 7 14 15 16 22 27 28 29 28 29 28 28 17 15 12 11 13 15 16 18 19 19 18 18 17 16 16 15 13 11 10 9 7 5 4
6 4 3 5 3 4 4 2 2 2 2 3 3 6 18 19 18 21 24 25 25 22 26 31 34 30 23 17 15 15 16 17 19 20 20 19 18 17 16 15 14 14 12 10 9 7 3 3 2
4 4 7 5 3 4 4 4 2 2 1 5 11 15 24 21 18 23 28 26 23 22 32 34 23 19 19 17 16 17 18 18 19 20 20 16 16 14 14 13 13 11 9 7 4 1 1 2 3
6 5 6 6 11 3 6 5 5 3 3 6 16 26 26 21 28 28 25 21 31 25 24 34 27 21 22 19 18 18 19 21 21 19 17 14 12 11 9 8 7 7 7 4 2 4 4 3 5
2 14 6 6 6 6 7 9 2 6 4 1 16 25 24 22 25 24 21 26 32 32 37 23 21 21 18 17 19 20 21 22 19 18 15 10 9 7 5 6 4 6 5 4 3 3 4 4 8
2 2 3 10 10 5 8 4 3 3 8 10 25 23 23 22 24 23 25 34 37 40 36 26 21 20 18 19 20 22 22 19 16 14 11 9 7 4 3 5 6 6 6 5 4 4 6 8 9
1 9 5 7 10 11 6 1 4 6 15 19 24 22 17 26 28 20 25 34 34 35 26 21 18 19 19 20 22 21 21 18 14 10 9 6 5 5 5 6 7 6 6 5 5 5 6 7 9
9 5 5 1 4 4 12 4 1 16 18 21 19 19 25 30 31 29 27 28 30 28 23 23 20 19 21 22 20 19 17 15 13 11 8 9 8 7 8 8 7 6 5 3 4 5 7 10 11
5 4 1 5 2 5 3 3 4 19 21 21 22 24 25 37 27 25 27 27 26 23 24 24 24 21 21 21 18 16 15 14 13 11 11 10 8 7 8 8 7 5 2 4 7 10 11 11 12
2 3 1 6 3 2 4 3 5 19 21 21 23 29 30 36 31 27 29 25 26 24 25 26 25 22 23 19 17 15 15 14 14 13 12 9 8 10 10 9 7 3 4 8 10 11 12 12 12
2 3 2 4 4 2 2 1 4 23 21 23 26 27 32 33 31 32 31 28 27 26 25 26 26 24 23 20 18 19 20 18 15 14 11 9 13 12 10 7 3 4 9 11 12 12 13 13 15
3 4 4 6 6 5 7 5 8 19 12 15 22 27 32 35 29 30 31 32 33 30 28 31 29 29 25 25 25 24 21 18 16 13 11 13 13 12 8 4 5 9 11 12 13 13 13 15 18
3 3 7 9 7 8 6 5 3 9 15 28 31 30 36 36 32 33 32 34 35 32 31 35 31 31 30 25 23 20 20 17 14 13 13 12 12 9 5 6 10 11 12 14 15 14 15 17 20
5 4 6 9 2 2 5 0 6 6 9 18 25 37 39 39 38 39 36 40 36 36 34 34 31 31 26 26 25 22 21 17 19 18 16 12 8 6 8 9 10 11 12 13 17 18 18 18 20
4 4 7 5 2 3 2 3 5 8 12 9 23 30 39 41 40 40 40 42 40 39 37 33 32 32 30 29 29 24 22 24 22 17 13 11 10 10 11 11 8 10 13 16 19 19 18 19 21
7 5 4 2 1 3 1 3 5 7 9 15 20 31 37 43 44 44 43 40 36 37 40 36 33 33 28 27 25 20 19 16 15 15 16 14 14 14 10 9 8 10 13 19 19 17 19 23 24
3 2 5 5 2 2 2 4 4 6 16 17 22 30 39 41 40 40 41 39 39 36 37 38 37 32 26 27 26 23 17 15 16 18 19 18 18 16 15 11 11 16 27 20 18 21 23 25 25
4 5 3 4 4 4 1 2 8 7 5 9 19 33 38 45 42 42 43 40 40 38 33 29 34 31 29 25 26 23 19 18 18 20 23 24 23 20 13 9 19 24 17 18 21 24 24 25 24
3 5 5 3 3 4 2 4 6 3 13 7 22 31 36 41 47 46 42 37 34 25 20 22 26 26 27 28 26 22 22 23 23 24 27 26 22 16 16 17 21 11 16 20 21 23 24 23 21
1 1 1 5 3 2 3 6 9 7 4 4 7 16 28 37 44 46 39 33 30 22 21 21 25 27 25 24 24 23 26 26 26 26 24 22 14 14 18 13 11 15 18 20 24 24 24 20 19
3 7 3 2 3 3 4 4 5 7 5 3 4 14 24 30 34 39 39 35 28 22 19 25 27 26 23 24 25 25 25 24 25 26 25 16 13 14 10 11 15 18 20 24 26 26 22 20 22
2 2 1 4 4 4 1 5 6 7 6 7 11 21 25 29 33 36 37 33 26 26 26 28 29 27 27 26 23 22 24 26 26 24 17 15 16 10 13 15 17 20 23 25 25 25 22 22 24
4 7 6 4 4 2 4 6 4 9 8 9 10 16 23 27 30 33 34 34 34 32 31 30 31 33 31 30 27 28 30 28 24 13 20 10 8 11 14 16 19 21 22 24 25 23 22 23 24
Wind_Direction
303 144 89 278 55 64 258 260 241 283 329 15 294 342 108 54 155 210 152 162 169 165 163 167 167 164 162 154 144 144 141 135 134 133 129 125 120 117 112 105 102 99 93 91 90 89 88 86 78
120 117 82 50 82 84 272 268 299 289 54 109 15 20 43 74 10 159 150 164 169 166 166 167 166 166 163 154 143 143 138 138 131 131 126 121 118 113 108 104 100 97 96 94 93 92 89 86 82
119 129 59 91 113 190 245 262 292 320 44 275 68 57 34 47 109 165 169 162 168 168 168 170 168 164 159 153 143 146 139 133 133 130 123 119 116 111 107 104 103 100 99 98 94 93 93 85 82
121 128 82 92 240 250 236 288 242 300 75 77 101 51 67 356 159 175 171 163 162 166 169 168 170 164 158 146 146 138 132 131 135 128 123 122 117 112 108 107 106 105 103 100 98 94 95 87 84
166 130 63 2 269 247 239 285 235 72 72 43 101 84 40 91 183 179 169 168 165 165 168 166 166 160 151 143 138 130 134 137 136 131 127 122 118 114 110 110 107 106 105 104 106 103 85 86 84
127 88 62 230 254 234 232 269 287 60 132 130 105 113 89 158 183 175 168 169 166 167 166 166 157 156 145 137 119 150 158 143 136 131 127 122 119 114 113 112 108 105 106 106 101 100 101 78 83
139 90 219 246 257 258 212 219 226 123 165 138 143 111 129 157 171 168 174 174 163 167 169 159 149 146 147 126 140 161 151 143 136 130 127 122 118 114 111 108 106 104 106 106 105 104 102 89 57
187 98 14 262 247 277 207 168 189 160 358 115 135 160 154 145 171 173 182 173 170 171 171 159 150 145 138 143 158 150 146 143 137 136 128 125 118 115 115 112 111 109 113 111 105 104 105 101 62
190 79 238 260 217 250 148 154 153 3 300 10 56 143 154 156 158 175 174 170 165 165 155 142 132 140 157 165 156 153 148 148 141 131 131 128 123 122 120 117 115 123 118 115 110 104 109 114 94
134 138 218 211 234 244 158 109 138 240 280 77 79 137 151 159 156 164 166 164 178 160 138 126 139 138 164 166 162 156 154 150 143 139 140 134 132 127 129 124 124 131 141 139 116 73 315 251 288
184 204 207 211 217 181 119 164 197 198 270 196 154 142 154 163 149 151 156 141 136 115 136 143 134 151 171 175 163 158 156 154 151 150 150 152 146 143 141 143 137 148 173 176 210 194 222 263 297
186 240 176 199 150 130 148 145 183 204 356 101 156 152 149 153 153 147 151 154 145 123 137 152 166 182 180 173 163 165 165 162 161 164 162 172 169 162 132 136 159 175 199 211 184 220 252 273 312
240 26 125 151 149 130 134 199 190 40 32 152 159 154 148 146 143 149 147 142 141 151 154 166 173 193 181 172 169 171 170 171 172 176 175 181 182 193 195 214 215 222 198 199 226 251 273 282 293
263 96 95 148 182 166 143 187 357 84 121 127 151 145 156 169 153 152 165 160 158 163 178 190 187 186 182 176 174 177 178 181 180 176 193 200 224 230 229 224 213 220 228 238 256 271 287 313 327
125 56 15 1 195 216 132 42 231 135 140 132 120 139 178 167 156 155 164 173 183 184 183 185 185 183 176 178 180 185 185 191 189 197 207 215 212 216 219 227 229 211 207 233 281 315 325 318 318
61 50 105 255 232 253 136 226 208 149 142 146 152 165 167 171 181 175 178 185 189 197 199 191 192 187 185 188 190 190 194 198 203 210 208 191 191 207 216 211 201 199 247 323 325 315 316 328 330
20 121 235 321 68 329 49 179 182 177 161 157 174 183 186 185 191 197 197 191 192 195 193 195 198 196 198 204 201 198 201 205 209 208 190 199 206 201 204 202 207 222 313 318 324 328 329 336 348
4 51 297 241 292 75 342 284 205 183 178 178 177 187 191 196 201 202 203 206 201 199 200 209 205 206 206 204 201 204 207 208 202 196 219 218 202 202 211 213 227 316 334 336 334 331 342 348 352
92 291 308 280 234 171 219 211 208 198 205 193 189 186 194 198 198 204 204 204 205 205 208 212 211 207 206 205 204 205 210 208 209 222 224 198 203 214 214 250 309 329 334 337 335 337 340 345 346
342 298 288 290 276 172 180 214 178 187 204 199 197 196 200 205 203 204 204 205 208 208 212 211 210 209 208 212 215 222 220 220 226 226 219 218 213 214 236 291 322 325 329 335 335 330 331 335 338
249 231 271 239 19 340 121 115 150 224 193 211 210 201 201 201 200 201 203 205 209 210 209 211 213 213 215 216 218 216 215 223 222 224 221 215 210 238 262 282 302 317 329 333 331 325 326 330 329
299 263 243 281 142 196 164 254 237 182 194 196 208 205 205 204 203 199 203 204 210 211 210 213 215 217 218 217 218 220 230 238 234 227 212 204 219 233 245 259 285 316 321 322 323 320 320 319 316
229 262 263 188 168 107 316 110 262 142 204 215 205 209 211 207 204 204 206 210 215 216 215 216 217 221 220 223 224 228 234 230 219 206 206 212 224 227 245 263 273 301 316 315 306 307 310 313 315
172 160 37 44 55 35 262 139 277 185 214 214 206 209 208 209 209 211 212 215 219 219 223 222 224 224 218 228 220 222 224 218 213 211 209 219 223 228 241 259 283 312 307 296 296 305 309 309 311
98 64 345 359 15 221 335 57 241 249 214 217 205 211 203 203 203 209 209 213 216 218 220 218 221 217 226 220 212 217 224 224 230 230 223 223 225 224 255 251 288 294 296 294 303 309 311 310 311
71 141 157 227 211 265 21 233 256 223 296 250 230 211 206 196 199 203 203 202 207 216 213 213 220 211 205 206 214 220 222 224 229 227 225 227 228 249 252 283 288 291 298 307 313 314 314 312 314
188 22 110 98 11 50 256 291 311 332 65 46 123 187 192 198 203 205 204 208 211 222 218 216 199 197 204 216 219 222 221 224 226 213 210 217 253 257 286 304 305 300 308 312 316 317 316 317 322
160 155 62 17 185 226 282 286 242 303 292 168 185 174 194 202 205 206 206 210 220 212 211 202 201 206 216 213 217 219 216 215 210 215 220 235 245 301 306 305 302 306 313 314 315 318 317 317 323
141 190 153 127 147 171 215 265 223 257 245 227 207 207 202 202 205 205 207 212 212 207 203 200 205 213 214 209 210 217 214 213 217 216 223 265 294 282 285 291 298 307 310 309 312 317 313 314 315
187 193 146 129 238 181 163 269 261 246 243 245 239 210 207 206 205 207 207 206 204 205 202 203 207 211 210 211 219 218 212 211 210 236 270 280 287 271 276 290 303 301 303 307 310 312 312 306 306
Height
1510 1509 1510 1513 1521 1525 1527 1517 1504 1500 1497 1494 1493 1495 1491 1499 1500 1507 1499 1503 1509 1513 1517 1521 1523 1525 1530 1531 1531 1536 1543 1545 1547 1550 1549 1549 1549 1552 1553 1553 1554 1555 1555 1555 1557 1558 1558 1558 1558
1511 1510 1511 1514 1529 1532 1527 1509 1503 1501 1499 1498 1497 1496 1497 1501 1501 1500 1501 1504 1510 1515 1518 1521 1525 1527 1529 1532 1532 1540 1542 1547 1549 1550 1549 1550 1551 1552 1553 1554 1556 1557 1557 1559 1558 1558 1560 1560 1560
1511 1511 1512 1519 1531 1532 1525 1505 1501 1498 1498 1499 1499 1498 1500 1502 1502 1502 1502 1503 1510 1515 1518 1523 1526 1529 1531 1534 1533 1540 1544 1547 1550 1550 1549 1550 1553 1552 1553 1556 1559 1559 1561 1561 1561 1560 1561 1562 1562
1512 1513 1515 1523 1523 1515 1511 1503 1499 1499 1498 1499 1501 1504 1505 1505 1506 1506 1507 1508 1512 1515 1520 1525 1529 1531 1532 1530 1537 1539 1545 1547 1550 1551 1550 1552 1553 1553 1554 1558 1560 1561 1562 1562 1564 1563 1562 1564 1564
1512 1510 1522 1524 1517 1508 1507 1503 1499 1499 1498 1499 1501 1507 1507 1507 1507 1507 1508 1512 1512 1516 1522 1526 1529 1533 1533 1535 1537 1540 1545 1548 1550 1551 1552 1553 1554 1555 1556 1560 1562 1563 1564 1564 1567 1567 1564 1567 1567
1511 1512 1528 1528 1516 1506 1504 1502 1500 1499 1498 1498 1501 1505 1508 1507 1507 1507 1510 1514 1516 1517 1521 1525 1527 1533 1535 1537 1537 1545 1549 1550 1550 1552 1554 1555 1557 1558 1559 1561 1563 1564 1565 1566 1569 1569 1570 1569 1570
1510 1516 1523 1517 1515 1505 1501 1499 1499 1498 1497 1498 1497 1503 1507 1509 1509 1509 1512 1516 1517 1519 1521 1523 1522 1531 1537 1538 1544 1548 1550 1551 1551 1554 1556 1558 1560 1560 1561 1563 1564 1566 1567 1566 1568 1570 1571 1571 1570
1508 1511 1516 1516 1513 1506 1497 1498 1499 1499 1499 1500 1500 1502 1504 1505 1509 1512 1514 1516 1520 1522 1523 1523 1529 1533 1534 1542 1546 1548 1550 1552 1553 1555 1557 1559 1562 1562 1562 1563 1565 1567 1567 1568 1569 1571 1572 1572 1570
1506 1517 1523 1514 1508 1498 1496 1498 1502 1501 1501 1500 1500 1501 1502 1505 1509 1512 1514 1518 1521 1524 1520 1521 1530 1537 1541 1545 1547 1549 1552 1553 1555 1556 1558 1561 1562 1562 1563 1565 1565 1567 1569 1570 1570 1571 1573 1572 1572
1507 1517 1511 1502 1500 1497 1495 1500 1502 1502 1500 1502 1502 1502 1504 1507 1509 1514 1516 1519 1524 1525 1525 1529 1534 1540 1543 1546 1547 1549 1551 1554 1556 1557 1560 1562 1563 1564 1564 1566 1568 1569 1571 1571 1571 1570 1572 1573 1571
1502 1508 1498 1497 1495 1496 1498 1499 1499 1500 1502 1502 1503 1503 1505 1510 1511 1514 1519 1520 1522 1521 1528 1532 1536 1539 1543 1546 1548 1551 1552 1553 1556 1558 1561 1563 1564 1565 1567 1568 1570 1570 1572 1571 1571 1570 1572 1571 1571
1500 1493 1494 1493 1496 1498 1498 1498 1500 1500 1502 1500 1500 1503 1508 1511 1514 1517 1520 1523 1525 1532 1533 1538 1541 1544 1545 1547 1548 1551 1553 1554 1556 1559 1560 1564 1564 1565 1569 1569 1570 1571 1571 1571 1570 1570 1572 1570 1570
1496 1494 1493 1493 1497 1499 1498 1499 1499 1501 1499 1499 1502 1506 1510 1514 1516 1520 1523 1526 1527 1530 1533 1539 1540 1544 1545 1547 1549 1551 1553 1555 1557 1559 1561 1564 1565 1567 1567 1569 1570 1571 1572 1571 1570 1570 1570 1569 1568
1495 1493 1495 1496 1497 1498 1499 1500 1500 1504 1502 1503 1508 1509 1512 1514 1517 1519 1522 1527 1530 1534 1537 1541 1543 1544 1545 1548 1550 1552 1554 1554 1557 1558 1563 1564 1565 1566 1567 1568 1569 1570 1571 1570 1569 1569 1569 1568 1567
1496 1499 1498 1497 1497 1496 1498 1503 1501 1502 1505 1507 1510 1509 1509 1514 1515 1518 1522 1525 1528 1533 1537 1539 1542 1543 1544 1548 1550 1553 1552 1556 1556 1560 1562 1564 1566 1565 1567 1567 1569 1568 1570 1568 1567 1568 1567 1566 1565
1502 1504 1510 1498 1495 1495 1496 1507 1500 1503 1506 1508 1509 1511 1513 1515 1516 1520 1522 1524 1528 1532 1534 1538 1540 1542 1545 1548 1550 1551 1554 1556 1557 1560 1562 1563 1565 1565 1566 1566 1567 1567 1567 1567 1567 1566 1565 1563 1562
1507 1514 1509 1504 1497 1496 1498 1502 1499 1503 1505 1507 1510 1510 1513 1516 1518 1519 1523 1525 1529 1532 1533 1536 1539 1542 1545 1547 1550 1552 1554 1556 1558 1560 1562 1563 1563 1564 1566 1565 1566 1566 1567 1567 1565 1563 1562 1561 1560
1512 1512 1508 1507 1500 1498 1499 1503 1500 1501 1504 1505 1507 1510 1512 1514 1514 1518 1521 1525 1529 1532 1534 1536 1539 1541 1545 1547 1549 1550 1554 1555 1557 1559 1561 1561 1562 1563 1565 1564 1565 1565 1565 1564 1563 1561 1559 1558 1556
1500 1505 1508 1499 1495 1500 1501 1503 1505 1500 1504 1507 1508 1509 1510 1511 1515 1518 1520 1523 1527 1531 1534 1536 1538 1540 1542 1545 1547 1549 1551 1554 1555 1558 1559 1560 1561 1562 1562 1563 1563 1563 1562 1561 1560 1558 1557 1555 1554
1498 1505 1506 1498 1490 1495 1498 1500 1499 1504 1499 1500 1501 1506 1507 1509 1512 1516 1519 1522 1525 1529 1532 1535 1537 1539 1541 1543 1546 1548 1550 1552 1554 1556 1557 1558 1559 1560 1560 1561 1561 1560 1559 1558 1557 1556 1555 1554 1553
1499 1503 1502 1503 1494 1492 1495 1500 1500 1500 1498 1499 1500 1499 1503 1503 1506 1510 1514 1517 1521 1525 1527 1532 1535 1538 1539 1542 1544 1546 1547 1550 1552 1553 1553 1555 1557 1559 1560 1560 1559 1557 1556 1556 1555 1554 1553 1552 1551
1504 1493 1494 1495 1500 1510 1492 1517 1500 1495 1496 1497 1496 1496 1497 1500 1504 1507 1510 1512 1515 1519 1524 1529 1531 1534 1537 1540 1541 1543 1545 1547 1548 1551 1552 1554 1556 1558 1558 1557 1556 1555 1555 1554 1553 1552 1551 1551 1549
1499 1490 1490 1489 1498 1499 1499 1510 1498 1492 1496 1491 1492 1491 1494 1494 1498 1503 1503 1506 1512 1518 1522 1526 1529 1531 1535 1536 1538 1542 1544 1546 1548 1549 1551 1553 1554 1554 1555 1554 1555 1553 1553 1553 1551 1550 1549 1547 1546
1487 1490 1494 1500 1504 1516 1499 1505 1503 1496 1483 1480 1484 1486 1489 1491 1494 1499 1504 1507 1511 1516 1520 1524 1526 1530 1532 1534 1537 1540 1542 1544 1546 1548 1549 1550 1551 1551 1553 1552 1554 1554 1552 1548 1548 1547 1545 1544 1542
1488 1500 1521 1524 1527 1520 1498 1503 1493 1474 1475 1473 1475 1476 1482 1488 1491 1496 1500 1504 1508 1513 1514 1518 1523 1526 1529 1531 1534 1537 1540 1542 1544 1545 1546 1545 1547 1548 1549 1549 1550 1550 1549 1547 1545 1543 1541 1539 1538
1492 1497 1521 1517 1525 1517 1496 1504 1488 1469 1467 1467 1468 1470 1476 1483 1488 1493 1497 1501 1505 1507 1511 1514 1518 1522 1526 1529 1532 1535 1538 1540 1542 1543 1543 1544 1544 1545 1545 1545 1544 1544 1545 1543 1541 1539 1537 1535 1533
1493 1501 1498 1512 1518 1522 1510 1494 1477 1468 1470 1466 1467 1468 1473 1478 1483 1488 1494 1499 1502 1505 1508 1511 1515 1520 1524 1527 1529 1532 1535 1537 1538 1540 1539 1537 1545 1543 1543 1541 1540 1540 1540 1538 1536 1533 1531 1530 1527
1486 1490 1509 1515 1517 1517 1510 1502 1497 1476 1470 1471 1469 1469 1472 1475 1480 1485 1491 1495 1500 1504 1506 1510 1514 1517 1521 1524 1527 1530 1532 1533 1534 1535 1536 1537 1535 1539 1538 1537 1538 1537 1535 1533 1530 1528 1527 1525 1523
1492 1495 1496 1503 1513 1518 1525 1508 1478 1472 1468 1468 1469 1468 1469 1472 1476 1481 1487 1493 1497 1500 1503 1507 1511 1514 1516 1520 1523 1526 1528 1529 1529 1528 1531 1532 1533 1535 1535 1535 1533 1531 1529 1527 1525 1523 1522 1520 1518
1479 1486 1491 1514 1505 1512 1517 1507 1469 1467 1464 1464 1464 1467 1470 1473 1476 1480 1484 1488 1492 1496 1500 1503 1507 1509 1512 1515 1516 1517 1519 1521 1521 1528 1528 1530 1528 1531 1531 1530 1529 1526 1523 1522 1520 1518 1517 1515 1513